Location: Berg
(47.2344°N, 9.5296°E)
Time: 20:43:49
(UTC+00:00)

X-37B - Pass Details

Date: 29 September 2021
Orbit: 385 x 389 km, 45.0° (Epoch: 17 October)

Event Time Altitude Azimuth Distance (km) Brightness Sun altitude
Exits shadow 04:35:01 11° 265° (W) 1,335 2.6 -8.1°
Maximum altitude 04:37:52 43° 193° (SSW) 553 1.2 -7.7°
Drops below altitude 10° 04:40:54 10° 120° (ESE) 1,413 4.4 -7.1°
Sets 04:43:01 0° 114° (ESE) 2,267 5.7 -6.8°
